Home   Weather   Ålesund   Past weeks

Flag for Norway Past Weather in Ålesund, Norway — Yesterday and Last 2 Weeks

52 °F

Passing clouds.

Feels Like: 50 °F
Forecast: 46 / 50 °F
Wind: 6 mph from South

Location: Alesund / Vigra

Current Time: Oct 24, 2016 at 5:56:24 PM

Latest Report: Oct 24, 2016 at 4:50 PM

Visibility: N/A

Pressure: 30.27 "Hg

Humidity: 58%

Dew Point: 37 °F

Location of ÅlesundLocation

Past Weather in Ålesund — Graph


Ålesund Temperature Yesterday

Maximum temperature yesterday: 48 °F (at 2:20 PM)
Minimum temperature yesterday: 34 °F (at 11:50 PM)
Average temperature yesterday: 41 °F

High & Low Weather Summary for the Past Weeks

High61 °F (Oct 18, 2:50 PM)100% (Oct 9, 7:50 PM)30.57 "Hg (Oct 9, 7:50 PM)
Low32 °F (Oct 14, 3:20 AM)31% (Oct 15, 6:20 PM)29.92 "Hg (Oct 18, 6:50 AM)
Average47 °F72%30.29 "Hg
* Reported Oct 9 4:20 PM — Oct 24 4:50 PM, Ålesund, Weather by CustomWeather, © 2016

Note: Actual official high and low records may vary slightly from our data, if they occured in-between our weather recording intervals... More about our weather records


Ålesund Weather History for the Previous 24 Hours

Scroll right to see more
Time TempWeatherWind HumidityBarometerVisibility
4:50 PM
Mon, Oct 24
52 °FPassing clouds.6 mph58%30.27 "HgN/A
4:20 PM54 °FPassing clouds.6 mph47%30.27 "HgN/A
3:50 PM54 °FSunny.7 mph51%30.27 "Hg10 mi
3:20 PM52 °FSunny.6 mph54%30.27 "Hg10 mi
2:50 PM52 °FSunny.6 mph54%30.27 "Hg10 mi
2:20 PM52 °FSunny.9 mph50%30.27 "Hg10 mi
1:50 PM52 °FSunny.9 mph54%30.27 "Hg10 mi
1:20 PM52 °FSunny.8 mph50%30.27 "Hg10 mi
12:50 PM52 °FSunny.8 mph50%30.27 "Hg10 mi
12:20 PM50 °FSunny.12 mph54%30.27 "Hg10 mi
11:50 AM46 °FSunny.10 mph66%30.27 "Hg10 mi
11:20 AM45 °FPassing clouds.10 mph66%30.27 "HgN/A
10:50 AM45 °FSunny.10 mph66%30.27 "Hg10 mi
10:20 AM45 °FSunny.9 mph66%30.27 "Hg10 mi
9:50 AM45 °FSunny.8 mph66%30.27 "Hg10 mi
9:20 AM45 °FPassing clouds.10 mph66%30.27 "HgN/A
8:50 AM45 °FSunny.10 mph66%30.27 "Hg10 mi
8:20 AM45 °FClear.10 mph66%30.27 "Hg10 mi
7:50 AM45 °FClear.13 mph66%30.24 "Hg10 mi
7:20 AM45 °FClear.12 mph66%30.24 "Hg10 mi
6:50 AM45 °FClear.14 mph66%30.24 "Hg10 mi
6:20 AM45 °FClear.13 mph66%30.24 "HgN/A
5:50 AM45 °FClear.14 mph61%30.24 "Hg10 mi
5:20 AM46 °FCool.12 mph57%30.24 "HgN/A
4:50 AM43 °FQuite cool.13 mph71%30.24 "HgN/A
4:20 AM43 °FQuite cool.13 mph71%30.24 "HgN/A
3:50 AM41 °FQuite cool.10 mph76%30.24 "HgN/A
3:20 AM41 °FQuite cool.8 mph70%30.27 "HgN/A
2:50 AM43 °FQuite cool.8 mph71%30.27 "HgN/A
2:20 AM43 °FQuite cool.8 mph71%30.27 "HgN/A
1:50 AM41 °FQuite cool.9 mph76%30.27 "HgN/A
1:20 AM39 °FChilly.9 mph75%30.27 "HgN/A
12:50 AM39 °FChilly.10 mph75%30.27 "HgN/A
12:20 AM41 °FQuite cool.9 mph76%30.27 "HgN/A
11:50 PM
Sun, Oct 23
34 °FChilly.8 mph81%30.27 "HgN/A
11:20 PM36 °FChilly.7 mph75%30.27 "HgN/A
10:50 PM39 °FChilly.7 mph70%30.27 "HgN/A
10:20 PM41 °FClear.5 mph66%30.27 "Hg10 mi
9:50 PM36 °FClear.5 mph81%30.27 "Hg10 mi
9:20 PM36 °FClear.3 mph81%30.27 "Hg10 mi
8:50 PM36 °FPassing clouds.6 mph81%30.27 "HgN/A
8:20 PM37 °FClear.7 mph75%30.27 "Hg10 mi
7:50 PM36 °FClear.8 mph81%30.24 "Hg10 mi
7:20 PM36 °FClear.7 mph87%30.24 "Hg10 mi
6:50 PM37 °FClear.3 mph81%30.24 "Hg10 mi
6:20 PM36 °FClear.6 mph81%30.27 "Hg10 mi
5:50 PM36 °FSunny.No wind87%30.24 "Hg10 mi
5:20 PM39 °FSunny.No wind75%30.24 "Hg10 mi
Weather by CustomWeather, © 2016

See weather overviewHow to use our weather pages